Regional Weather Roundup
Issued by NWS Memphis, TN

Home | Current Version | Previous Version | Text Only | Print | Product List | Glossary On
Versions: 1 2 3 4 5 6 7 8 9 10 11 12 13 14 15 16 17 18 19 20 21 22 23 24 25 26 27 28 29 30 31 32 33 34 35 36 37 38 39 40 41 42 43 44 45 46 47 48 49 50
000
ASUS44 KMEG 211210
RWRMEG
MEMPHIS CWA HOURLY WEATHER ROUNDUP
NATIONAL WEATHER SERVICE MEMPHIS TN
700 AM CDT SUN SEP 21 2014

...WEST TENNESSEE...

CITY           SKY/WX    TMP DP  RH WIND       PRES   REMARKS
MEMPHIS INTL   PTCLDY    72  66  81 SW5       30.00S
6HR MIN TEMP:  71; 6HR MAX TEMP:  75;

NWS MEMPHIS      N/A     67 N/A N/A MISG        N/A
JACKSON        CLEAR     67  64  90 SW6       30.00R
6HR MIN TEMP:  67; 6HR MAX TEMP:  71;

LEXINGTON      CLEAR     63  63 100 CALM      30.00R
SAVANNAH       CLEAR     64  64 100 SE3       30.02R
DYERSBURG      CLEAR     70  59  68 W7        29.99S
6HR MIN TEMP:  70; 6HR MAX TEMP:  73;

UNION CITY     CLEAR     68  66  94 SW6       29.95F
PARIS          CLEAR     66  64  94 SW8       29.98S
HUNTINGDON     CLEAR     68  64  86 SW3       29.99R


...EASTERN ARKANSAS...

CITY           SKY/WX    TMP DP  RH WIND       PRES   REMARKS
JONESBORO      CLEAR     69  67  93 W5        29.99S
6HR MIN TEMP:  68; 6HR MAX TEMP:  72;

WEST MEMPHIS   PTCLDY    65  65 100 CALM      29.99S FOG
6HR MIN TEMP:  65; 6HR MAX TEMP:  71;

BATESVILLE     CLEAR     68  64  88 CALM      30.01R
6HR MIN TEMP:  66; 6HR MAX TEMP:  70;

NEWPORT        CLEAR     68  66  93 SW3       30.01S
6HR MIN TEMP:  67; 6HR MAX TEMP:  72;

WALNUT RIDGE   CLEAR     66  54  63 SW5       29.98S
6HR MIN TEMP:  66; 6HR MAX TEMP:  72;

BLYTHEVILLE    CLEAR     69  67  93 SW5       29.99R
6HR MIN TEMP:  68; 6HR MAX TEMP:  72;

SEARCY         CLEAR     64  64 100 CALM      30.03R FOG
6HR MIN TEMP:  64; 6HR MAX TEMP:  68;

STUTTGART      CLEAR     68  64  88 SW5       30.02S
6HR MIN TEMP:  66; 6HR MAX TEMP:  73;

PINE BLUFF     CLEAR     68  65  90 CALM      30.02R
6HR MIN TEMP:  66; 6HR MAX TEMP:  71;

MONTICELLO     CLEAR     67  65  93 CALM      30.02R
6HR MIN TEMP:  67; 6HR MAX TEMP:  72;



...NORTH MISSISSIPPI...

CITY           SKY/WX    TMP DP  RH WIND       PRES   REMARKS
TUPELO         CLEAR     66  63  90 CALM      30.03R
6HR MIN TEMP:  66; 6HR MAX TEMP:  71;

OXFORD         CLEAR     66  64  94 CALM      30.05R
OLIVE BRANCH   PTCLDY    66  66 100 S6        30.02R
TUNICA         CLEAR     66  64  94 S3        30.02R
CLARKSDALE     CLEAR     66  66 100 CALM      30.03R
CORINTH        FOG       63  61  94 CALM      30.01S VSB<1/4
GRENADA        CLEAR     64  64 100 CALM      30.04R
GREENWOOD      CLEAR     66  63  90 CALM      30.03R
6HR MIN TEMP:  66; 6HR MAX TEMP:  72;

COLUMBUS       CLEAR     63  63 100 CALM      30.03R
6HR MIN TEMP:  62; 6HR MAX TEMP:  68;

STARKVILLE     FAIR      61  61 100 CALM      30.04R FOG
GOLDEN TRIANGL CLEAR     63  57  82 CALM      30.04R


...SOUTHEAST MISSOURI...

CITY           SKY/WX    TMP DP  RH WIND       PRES   REMARKS
WEST PLAINS    CLOUDY    69  66  90 W7        30.03S
6HR MIN TEMP:  68; 6HR MAX TEMP:  70; 6HR PCP:  0.08;

POPLAR BLUFF   CLOUDY    69  65  86 SW3       29.96R
6HR MIN TEMP:  67; 6HR MAX TEMP:  71; 6HR PCP: TRACE;

CAPE GIRARDEAU MOCLDY    68  66  93 W6        29.95R
6HR MIN TEMP:  64; 6HR MAX TEMP:  72; 6HR PCP: TRACE;



...NORTHWEST ALABAMA...

CITY           SKY/WX    TMP DP  RH WIND       PRES   REMARKS
MUSCLE SHOALS  CLEAR     64  61  90 CALM      30.04R
6HR MIN TEMP:  62; 6HR MAX TEMP:  66;



...MIDDLE TENNESSEE...

CITY           SKY/WX    TMP DP  RH WIND       PRES   REMARKS
NASHVILLE      MOCLDY    68  64  87 CALM      29.99R
6HR MIN TEMP:  65; 6HR MAX TEMP:  69;

CLARKSVILLE    PTCLDY    71  66  84 SW7       29.95R
6HR MIN TEMP:  68; 6HR MAX TEMP:  71;

DICKSON        PTCLDY    68  64  88 SW5       30.00R
COLUMBIA       CLEAR     66  66 100 S5        29.99S
LEWISBURG      CLEAR     68  63  84 SW5       30.01R


...WESTERN KENTUCKY...

CITY           SKY/WX    TMP DP  RH WIND       PRES   REMARKS
PADUCAH        MOCLDY    75  67  76 W7        29.94R
6HR MIN TEMP:  73; 6HR MAX TEMP:  76;

FORT CAMPBELL  PTCLDY    69  69 100 SW10      29.94S
6HR MIN TEMP:  67; 6HR MAX TEMP:  70;



...CENTRAL ARKANSAS...

CITY           SKY/WX    TMP DP  RH WIND       PRES   REMARKS
LITTLE ROCK    PTCLDY    69  65  86 W6        30.02R
6HR MIN TEMP:  69; 6HR MAX TEMP:  73;



SKY/WX REPORTED AS FAIR MEANS FEW OR NO CLOUDS BELOW
12 THOUSAND FEET.



USA.gov is the U.S. government's official web portal to all federal, state and local government web resources and services.